Location: Eaton Estates
(41.3089°N, 82.0057°W)
Time: 01:03:41
(UTC+00:00)

Cosmos 292 Rocket - Pass Details

Date: 17 June 2021
Orbit: 674 x 693 km, 74.0° (Epoch: 02 August)

Event Time Altitude Azimuth Distance (km) Brightness Sun altitude
Rises 01:36:38 0° 180° (S) 3,049 6.7 -5.9°
Reaches altitude 10° 01:39:02 10° 173° (S) 2,136 5.9 -6.2°
Maximum altitude 01:43:33 42° 103° (ESE) 983 4.2 -6.9°
Drops below altitude 10° 01:48:05 10° 33° (NNE) 2,141 6.4 -7.5°
Sets 01:50:29 0° 27° (NNE) 3,059 7.3 -7.9°
